Voltar ao catálogo

METEOR 2-5 DEB

LostPO
NORAD 38277·DEBRIS·🇷🇺 Russia

Lançado Oct 31, 1979 de Plesetsk Cosmodrome

Loading…

Próximas Passagens (próximas 24 horas)

TLE

ObsoletoSource: Space-Track

Época: Jun 25, 2024, 12:19 UTC

1 38277U 79095BX  24177.51338141  .00018188  00000-0  49589-2 0  9997
2 38277  81.2000  96.3913 0012804  75.9025  47.4948 14.47237947668503

Acompanhe METEOR 2-5 DEB em tempo real com AllMySat

Download on the App Store